This demonstration page uses our WeatherBlox Daily Observations layout. Learn more.

Left ArrowRight Arrow

Hourly Observations for August 18, 2016

Temp ( °F °C ) Dew Point ( °F °C ) Humidity (%) Winds ( mph kmh ) Pressure ( in mb ) Visibility ( mi km ) Precip ( " mm )
12:14 am 00:14 Clear 68 20 68 20 100 100 SW 3 6 30.12 1020 7 11.26538 N/A
12:34 am 00:34 Clear 68 20 66 19 94 94 Calm 30.12 1020 5 8.0467 N/A
12:55 am 00:55 Clear 66 19 66 19 100 100 Calm 30.15 1021 3 4.82802 N/A
1:14 am 01:14 Mostly Cloudy 66 19 64 18 94 94 Calm 30.15 1021 1.25 2.011675 N/A
1:34 am 01:34 Mostly Cloudy 64 18 64 18 100 100 Calm 30.15 1021 0.5 0.80467 N/A
1:55 am 01:55 Mostly Cloudy 64 18 64 18 100 100 Calm 30.12 1020 0.5 0.80467 N/A
2:14 am 02:14 Mostly Cloudy 64 18 64 18 100 100 Calm 30.12 1020 1 1.60934 N/A
2:34 am 02:34 Clear 64 18 64 18 100 100 Calm 30.12 1020 2.5 4.02335 N/A
2:54 am 02:54 Mostly Cloudy 64 18 64 18 100 100 Calm 30.12 1020 0.25 0.402335 N/A
3:14 am 03:14 Mostly Cloudy 64 18 64 18 100 100 Calm 30.12 1020 0.75 1.207005 N/A
3:35 am 03:35 Mostly Cloudy 64 18 64 18 100 100 Calm 30.12 1020 0.25 0.402335 N/A
3:54 am 03:54 Mostly Cloudy 64 18 64 18 100 100 Calm 30.12 1020 0.25 0.402335 N/A
4:14 am 04:14 Mostly Cloudy 64 18 64 18 100 100 Calm 30.12 1020 0.25 0.402335 N/A
4:35 am 04:35 Mostly Cloudy 64 18 64 18 100 100 Calm 30.12 1020 0.25 0.402335 N/A
4:54 am 04:54 Cloudy 66 19 66 19 100 100 Calm 30.12 1020 0.25 0.402335 N/A
5:14 am 05:14 Cloudy 66 19 66 19 100 100 Calm 30.12 1020 0.25 0.402335 N/A
5:35 am 05:35 Cloudy 66 19 66 19 100 100 Calm 30.12 1020 0.25 0.402335 N/A
5:54 am 05:54 Cloudy 66 19 66 19 100 100 Calm 30.12 1020 0.25 0.402335 N/A
6:14 am 06:14 Cloudy 66 19 66 19 100 100 Calm 30.12 1020 0.25 0.402335 N/A
6:35 am 06:35 Cloudy 66 19 66 19 100 100 Calm 30.12 1020 0.25 0.402335 N/A
6:54 am 06:54 Cloudy 66 19 66 19 100 100 Calm 30.12 1020 0.25 0.402335 N/A
7:15 am 07:15 Cloudy 66 19 66 19 100 100 Calm 30.12 1020 0.25 0.402335 N/A
7:35 am 07:35 Cloudy 68 20 66 19 94 94 Calm 30.15 1021 5 8.0467 N/A
7:54 am 07:54 Cloudy 68 20 68 20 100 100 Calm 30.15 1021 5 8.0467 N/A
8:15 am 08:15 Cloudy 68 20 68 20 100 100 Calm 30.12 1020 5 8.0467 N/A
8:35 am 08:35 Cloudy 68 20 68 20 100 100 Calm 30.15 1021 5 8.0467 N/A
8:54 am 08:54 Cloudy 70 21 70 21 100 100 SSW 3 6 30.15 1021 0.25 0.402335 N/A
9:15 am 09:15 Cloudy 70 21 70 21 100 100 undefined N/A N/A N/A N/A
9:34 am 09:34 undefined 70 21 70 21 100 100 undefined N/A N/A N/A N/A
9:54 am 09:54 undefined N/A N/A N/A undefined N/A N/A N/A N/A
10:14 am 10:14 undefined N/A N/A N/A undefined N/A N/A N/A N/A
10:34 am 10:34 undefined N/A N/A N/A undefined N/A N/A N/A N/A
10:54 am 10:54 undefined 72 22 72 22 100 100 SSE 3 6 30.09 1019 N/A N/A
11:14 am 11:14 Cloudy 73 23 72 22 94 94 S 6 9 N/A N/A N/A
11:34 am 11:34 Cloudy 75 24 72 22 89 89 SSE 6 9 30.12 1020 N/A N/A
11:54 am 11:54 Mostly Cloudy 75 24 72 22 89 89 S 5 7 30.12 1020 7 11.26538 N/A
12:14 pm 12:14 Partly Cloudy 75 24 72 22 89 89 S 7 11 30.15 1021 7 11.26538 N/A
12:34 pm 12:34 Mostly Cloudy 75 24 72 22 89 89 S 6 9 30.12 1020 7 11.26538 N/A
12:54 pm 12:54 Mostly Cloudy 77 25 72 22 83 83 S 9 15 30.12 1020 10 16.0934 N/A
1:14 pm 13:14 Partly Cloudy 79 26 72 22 79 79 S 10 17 30.12 1020 10 16.0934 N/A
1:34 pm 13:34 Partly Cloudy 81 27 72 22 74 74 S 10 17 30.12 1020 10 16.0934 N/A
1:54 pm 13:54 Partly Cloudy 81 27 70 21 70 70 S 8 13 30.09 1019 10 16.0934 N/A
2:14 pm 14:14 Partly Cloudy 81 27 72 22 74 74 S 9 15 30.09 1019 10 16.0934 N/A
2:34 pm 14:34 Partly Cloudy 81 27 70 21 70 70 S 9 15 30.09 1019 10 16.0934 N/A
2:54 pm 14:54 Partly Cloudy 81 27 72 22 74 74 S 10 17 30.09 1019 10 16.0934 N/A
3:14 pm 15:14 Partly Cloudy 82 28 72 22 70 70 S 9 15 30.09 1019 10 16.0934 N/A
3:34 pm 15:34 Partly Cloudy 82 28 72 22 70 70 S 10 17 30.09 1019 10 16.0934 N/A
3:54 pm 15:54 Sunny 82 28 70 21 66 66 S 10 17 30.06 1018 10 16.0934 N/A
4:14 pm 16:14 Sunny 81 27 70 21 70 70 S 10 17 30.06 1018 10 16.0934 N/A
4:34 pm 16:34 Sunny 82 28 72 22 70 70 SSW 8 13 30.06 1018 10 16.0934 N/A
4:54 pm 16:54 Sunny 82 28 72 22 70 70 SSW 9 15 30.06 1018 10 16.0934 N/A
5:14 pm 17:14 Sunny 82 28 70 21 66 66 SSW 8 13 30.06 1018 10 16.0934 N/A
5:34 pm 17:34 Sunny 82 28 68 20 62 62 SSW 8 13 30.06 1018 10 16.0934 N/A
5:54 pm 17:54 Partly Cloudy 82 28 68 20 62 62 SSW 8 13 30.03 1017 10 16.0934 N/A
6:14 pm 18:14 Sunny 82 28 70 21 66 66 S 7 11 30.03 1017 10 16.0934 N/A
6:34 pm 18:34 Sunny 82 28 70 21 66 66 S 6 9 30.03 1017 10 16.0934 N/A
6:54 pm 18:54 Sunny 81 27 70 21 70 70 S 5 7 30.03 1017 10 16.0934 N/A
7:14 pm 19:14 Sunny 81 27 70 21 70 70 Calm 30.03 1017 10 16.0934 N/A
7:34 pm 19:34 Partly Cloudy 79 26 70 21 74 74 S 5 7 30.03 1017 10 16.0934 N/A
7:54 pm 19:54 Mostly Cloudy 79 26 70 21 74 74 S 5 7 30.03 1017 10 16.0934 N/A
8:14 pm 20:14 Partly Cloudy 77 25 70 21 79 79 Calm 30.03 1017 10 16.0934 N/A
8:34 pm 20:34 Sunny 73 23 70 21 89 89 S 3 6 30.03 1017 10 16.0934 N/A
8:55 pm 20:55 Clear 73 23 70 21 89 89 S 5 7 30 1016 10 16.0934 N/A
9:14 pm 21:14 Clear 73 23 70 21 89 89 S 5 7 30.03 1017 10 16.0934 N/A
9:34 pm 21:34 Clear 73 23 70 21 89 89 SSW 3 6 30.03 1017 10 16.0934 N/A
9:54 pm 21:54 Clear 72 22 70 21 94 94 SSW 5 7 30.03 1017 10 16.0934 N/A
10:14 pm 22:14 Clear 72 22 68 20 88 88 S 6 9 30.03 1017 10 16.0934 N/A
10:34 pm 22:34 Clear 72 22 68 20 88 88 S 5 7 30.03 1017 7 11.26538 N/A
10:54 pm 22:54 Clear 72 22 70 21 94 94 SSW 3 6 30.03 1017 7 11.26538 N/A
11:14 pm 23:14 Partly Cloudy 70 21 68 20 94 94 S 3 6 30.06 1018 7 11.26538 N/A
11:34 pm 23:34 Mostly Cloudy 70 21 68 20 94 94 Calm 30.06 1018 7 11.26538 N/A
11:54 pm 23:54 Partly Cloudy 70 21 68 20 94 94 S 5 7 30.06 1018 7 11.26538 N/A

Powered by AerisWeather